Hourly Data Report for November 08, 2017

VICTORIA UNIVERSITY CS
BRITISH COLUMBIA

48°27'25.200" N
123°18'16.600" W
60.10 m
1018598
71783
WYJ

Download Data

Hourly Data (November 2017)
Hourly Data Report for November 8, 2017
TIME
LST
Temp Definition
°C
Dew Point Definition
°C
Rel Hum Definition
%
Precip. Amount Definition
mm

Wind Dir Definition
10's deg

Wind Spd Definition
km/h
Visibility Definition
km
Stn Press Definition
kPa
Hmdx Definition


Wind Chill Definition


Weather Definition


00:00 7.0 -0.3 60 0.0 6 3   100.75     LegendNANA
01:00 7.0 0.3 63 0.0 2 5   100.74     LegendNANA
02:00 6.5 1.3 69 0.0 2 7   100.66     LegendNANA
03:00 6.7 2.3 73 0.0 2 7   100.65     LegendNANA
04:00 6.8 1.6 69 0.0 1 9   100.60     LegendNANA
05:00 6.9 2.4 73 0.0 36 10   100.55     LegendNANA
06:00 7.2 2.5 72 0.0 1 9   100.48     LegendNANA
07:00 6.6 2.5 75 0.0 36 9   100.45     LegendNANA
08:00 6.5 1.4 70 0.0 35 11   100.42     LegendNANA
09:00 7.4 1.3 65 0.0 1 13   100.35     LegendNANA
10:00 8.2 1.4 62 0.0 2 6   100.37     LegendNANA
11:00 8.7 2.4 65 0.0 3 7   100.26     LegendNANA
12:00 9.2 2.5 63 0.0 2 10   100.16     LegendNANA
13:00 9.4 3.4 66 0.0 1 11   100.09     LegendNANA
14:00 9.7 3.6 66 0.0 3 7   99.97     LegendNANA
15:00 10.9 1.9 54 0.0 8 9   99.94     LegendNANA
16:00 9.4 3.9 68 0.0 9 9   99.87     LegendNANA
17:00 9.1 4.1 71 0.2 9 6   99.82     LegendNANA
18:00 8.7 4.0 72 0.0 11 5   99.79     LegendNANA
19:00 8.3 4.5 77 0.0 8 5   99.76     LegendNANA
20:00 8.1 4.8 79 0.0 8 5   99.80     LegendNANA
21:00 8.5 4.7 77 0.0 4 7   99.77     LegendNANA
22:00 8.5 4.7 77 0.0 9 8   99.77     LegendNANA
23:00 7.9 5.9 87 0.8 7 5   99.77     LegendNANA

Notes on Data Quality.

Legend

  • E = Estimated
  • M = Missing
  • NA = Not Available*
  • [empty] = Indicates an unobserved value
Date modified: